Погода в Кальяне

Индия     19°14′19″N   73°07′58″E
темп.,
°C
ветер,
м/с
пор.,
м/с
влажн.,
%
обл.,
%
осадки,
мм/ч
давл.,
гПа
погр.,
м
18 мая, вт
вт1823:30+27ю71776100 13.1 10011325
02:30+27ю61676100 1.3 10001195
05:30+27ю61678100 1.3 10011168
08:30+28ю71776100 0.0 10021386
11:30+31ююз101665100 1.9 10031599
14:30+31ююз101465100 4.4 10021461
17:30+30ююз81269100 5.8 10021242
20:30+28ююз61275100 0.1 1003931
19 мая, ср
ср1923:30+28ююз61277100 0.7 1005854
02:30+27ююз51185100 0.4 1003830
05:30+27ююз5983100 1.3 1004618
08:30+29ююз6973100 4.1 1006890
11:30+32юз795596 6.6 10061558
14:30+32юз785383 0.3 10041857
17:30+31юз6864100 0.3 10041206
20:30+28ююз588198 1.3 1006648
20 мая, чт
чт2023:30+27ююз3883100 4.0 1007582
02:30+26юз3686100 4.1 1006447
05:30+26ююз248799 7.7 1006209
08:30+29ю247420 0.0 1008713
11:30+33юз445745 0.1 10081482
14:30+33зюз545342 0.0 10061675
17:30+32зюз456032 0.2 1006790
20:30+29юз36725 0.0 1007521
21 мая, пт
пт2123:30+28ююз25806 0.2 1008458
02:30+28юз24816 1.1 1007143
05:30+27юз118112 1.5 100736
08:30+29зюз227170 0.1 1009822
11:30+33зюз225093 0.2 10081581
14:30+35зюз534174 0.0 10061845
17:30+33зюз54435 0.0 10051415
20:30+30ююз45615 0.0 1008654
22 мая, сб
сб2223:30+28ююз357130 0.0 1009497
02:30+28ю247599 0.0 1007358
05:30+27ю127718 0.0 100767
08:30+29ююз22675 0.0 1009808
11:30+33зюз334621 0.0 10081520
14:30+33юз6446100 0.0 10061318
17:30+30юз455642 0.0 1006832
20:30+29ююз346261 0.0 1007666